Flag for Japan Weather past 2 weeks in Sagamihara, Japan

Now
72 °F

Overcast.


Feels Like: 74 °F
Forecast: 67 / 75 °F
Wind: 8 mph from Southeast

Location: Yokota Ab

Current Time: Sep 2, 2014 at 11:00:47 PM

Latest Report: Sep 2, 2014 at 9:58 PM


Visibility: 10 mi

Pressure: 30.05 "Hg

Humidity: 76%

Dew point: 64 °F

Location of SagamiharaLocation

Historic Weather in Sagamihara — Graph

°F

Sagamihara temperature yesterday

Maximum temperature yesterday: 72 °F (at 12:58 PM)
Minimum temperature yesterday: 66 °F (at 9:04 PM)
Average temperature yesterday: 69 °F

Past Weeks' High & Low Weather Summary

 TemperatureHumidityPressure
High94 °F (Aug 20, 12:58 PM)100% (Aug 26, 12:03 PM)30.08 "Hg (Aug 26, 12:03 PM)
Low65 °F (Sep 2, 3:58 AM)50% (Aug 24, 2:58 PM)29.80 "Hg (Aug 26, 1:59 PM)
Average76 °F83%29.96 "Hg
* Reported Aug 18 9:58 PM — Sep 2 9:58 PM, Sagamihara, Weather by CustomWeather, © 2014

Note: Actual official high and low records may vary slightly from our data, if they occured in-between our weather recording intervals... More about our weather records

Advertising

Sagamihara weather history for previous 24 hours

 ConditionsComfort  
Time TempWeatherWind HumidityBarometerVisibility
9:58 PM
Sep 2
72 °FOvercast.8 mph76%30.05 "Hg10 mi
8:58 PM75 °FLight rain. Overcast.7 mph69%30.05 "Hg10 mi
7:58 PM76 °FOvercast.10 mph76%30.04 "Hg10 mi
6:58 PM76 °FPassing clouds.8 mph77%30.00 "Hg10 mi
5:58 PM79 °FPartly sunny.8 mph69%29.98 "Hg10 mi
4:58 PM81 °FPartly sunny.10 mph62%29.96 "Hg10 mi
3:58 PM83 °FPassing clouds.9 mph58%29.94 "Hg10 mi
2:58 PM85 °FPassing clouds.7 mph50%29.93 "Hg10 mi
1:58 PM85 °FSunny.5 mph53%29.93 "Hg10 mi
12:58 PM83 °FPassing clouds.2 mph58%29.95 "Hg10 mi
11:58 AM82 °FSunny.3 mph60%29.96 "Hg10 mi
10:58 AM80 °FSunny.1 mph69%29.97 "Hg10 mi
9:58 AM76 °FSunny.1 mph74%29.98 "Hg10 mi
8:58 AM75 °FSunny.6 mph78%30.01 "Hg10 mi
7:58 AM72 °FSunny.2 mph80%29.99 "Hg10 mi
6:58 AM68 °FSunny.1 mph93%30.00 "Hg10 mi
5:58 AM65 °FSunny.3 mph98%29.99 "Hg10 mi
4:58 AM65 °FClear.3 mph98%29.98 "Hg10 mi
3:58 AM65 °FClear.2 mph98%29.97 "Hg10 mi
2:58 AM66 °FClear.3 mph98%29.97 "Hg10 mi
1:58 AM67 °FClear.6 mph99%29.95 "Hg10 mi
12:58 AM67 °FPartly cloudy.5 mph99%29.96 "Hg10 mi
12:02 AM68 °FLight rain. Overcast.6 mph100%29.99 "Hg10 mi
11:58 PM
Sep 1
67 °FLight rain. Mostly cloudy.8 mph100%30.00 "Hg10 mi
Weather by CustomWeather, © 2014

See weather overviewHow to use our weather pages